User: anonymous   Login
Location: ???????
(55.5931°N, 39.3286°E)
Time: 07:47:31
(UTC+00:00)
Language:

S3M - Orbit

View from above orbital plane
View from above orbital plane
View from above satellite
View from above satellite

Ground track
Ground track

The orbit data is extracted from the following two-line orbital elements,

1 12508U 81053B   24164.79164576  .00000082  00000-0  68641-4 0  9994
2 12508  82.9594  52.0694 0036027 266.9310  92.7724 13.76510124166370
Epoch (UTC): 12 June 2024 18:59:58
Eccentricity: 0.0036027
inclination: 82.9594°
perigee height: 950 km
apogee height: 1003 km
right ascension of ascending node: 52.0694°
argument of perigee: 266.9310°
revolutions per day: 13.76510124
mean anomaly at epoch: 92.7724°
orbit number at epoch: 16637

The dashed part of the orbit path shows where the satellite is in the earth's shadow,  

DLR